Emerado, ND

10:32 AM CST on January 18, 2017 (GMT -0600)
Grand Forks International

Weather History for KGFK - December, 2013

Change the Weather History Date:

Sunday, December 15, 2013

  Actual Average Record
Temperature  
Mean Temperature -9 °F 11 °F  
Max Temperature 0 °F 20 °F 42 °F (1997)
Min Temperature -19 °F 3 °F -21 °F (1963)
Degree Days  
Heating Degree Days 74 54  
Month to date heating degree days 989 765  
Since 1 July heating degree days 3100 2964  
Cooling Degree Days 0 0  
Month to date cooling degree days 0 0  
Year to date cooling degree days 487 379  
Moisture  
Dew Point -15 °F    
Average Humidity 75    
Maximum Humidity 81    
Minimum Humidity 68    
Precipitation  
Precipitation 0.02 in 0.02 in 0.25 in (1964)
Month to date precipitation 0.54 0.29  
Year to date precipitation 19.37 20.49  
Snow  
Snow 0.20 in 0.40 in 2.50 in (1964)
Month to date snowfall 14.3 5.0  
Since 1 July snowfall 15.9 14.2  
Snow Depth 10.00 in    
Sea Level Pressure  
Sea Level Pressure 30.16 in    
Wind  
Wind Speed 8 mph (SE)    
Max Wind Speed 20 mph    
Max Gust Speed 24 mph    
Visibility 8 miles    
Events Snow    
T = Trace of Precipitation, MM = Missing Value Source: NWS Daily Summary

Daily Weather History Graph

Daily Weather History Graph

Search for Another Location

Airport or City:

Trip Planner

Search our weather history database for the weather conditions in past years. The results will help you decide how hot, cold, wet, or windy it might be!

Date:

Astronomy

Dec. 15, 2013 Rise Set
Actual Time 8:11 AM CST 4:36 PM CST
Civil Twilight 7:35 AM CST 5:12 PM CST
Nautical Twilight 6:55 AM CST 5:52 PM CST
Astronomical Twilight 6:18 AM CST 6:29 PM CST
Moon 3:46 PM CST (12/15) 6:23 AM CST (12/15)
Length of Visible Light 9h 36m
Length of Day
8h 24m
Waxing Gibbous, 98% of the Moon is Illuminated
Dec 15
Waxing Gibbous
Dec 17
Full
Dec 25
Last Quarter
Jan 1
New
Jan 7
First Quarter

Hourly Weather History & Observations

Time (CST) Temp. Windchill Dew Point Humidity Pressure Visibility Wind Dir Wind Speed Gust Speed Precip Events Conditions
12:53 AM -8.0 °F -28.0 °F -15.0 °F 71% 30.28 in 10.0 mi North 12.7 mph - N/A   Overcast
1:53 AM -8.0 °F -28.0 °F -15.0 °F 71% 30.28 in 10.0 mi North 12.7 mph - N/A   Overcast
2:53 AM -9.0 °F -27.4 °F -15.0 °F 75% 30.30 in 10.0 mi NNE 10.4 mph - N/A   Overcast
3:53 AM -9.0 °F -25.2 °F -16.1 °F 71% 30.28 in 10.0 mi North 8.1 mph - N/A   Overcast
4:53 AM -9.9 °F -26.3 °F -16.1 °F 74% 30.26 in 10.0 mi North 8.1 mph - N/A   Overcast
5:53 AM -11.0 °F -27.6 °F -17.0 °F 75% 30.27 in 10.0 mi North 8.1 mph - N/A   Overcast
6:53 AM -13.0 °F -25.1 °F -18.0 °F 78% 30.30 in 10.0 mi North 4.6 mph - N/A   Overcast
7:53 AM -15.0 °F -29.3 °F -20.0 °F 78% 30.29 in 10.0 mi North 5.8 mph - N/A   Mostly Cloudy
8:53 AM -17.0 °F -27.2 °F -20.9 °F 82% 30.27 in 10.0 mi ENE 3.5 mph - N/A   Mostly Cloudy
9:53 AM -17.0 °F - -23.1 °F 74% 30.28 in 10.0 mi Calm Calm - N/A   Mostly Cloudy
10:53 AM -14.1 °F - -20.0 °F 75% 30.27 in 5.0 mi Calm Calm - N/A   Haze
11:53 AM -14.1 °F -23.9 °F -18.9 °F 79% 30.25 in 10.0 mi SE 3.5 mph - N/A   Mostly Cloudy
12:53 PM -11.9 °F - -18.0 °F 74% 30.21 in 10.0 mi Calm Calm - N/A   Mostly Cloudy
1:53 PM -11.0 °F -22.8 °F -17.0 °F 75% 30.19 in 10.0 mi SE 4.6 mph - N/A   Overcast
2:53 PM -9.9 °F -23.4 °F -17.0 °F 71% 30.18 in 10.0 mi SE 5.8 mph - N/A   Overcast
3:53 PM -9.9 °F -24.9 °F -17.0 °F 71% 30.19 in 10.0 mi South 6.9 mph - N/A   Overcast
4:53 PM -9.0 °F -25.2 °F -17.0 °F 68% 30.16 in 3.0 mi SSE 8.1 mph - 0.00 in Snow Light Snow
5:07 PM -9.4 °F -22.7 °F -16.6 °F 71% 30.07 in 2.5 mi SSE 5.8 mph - 0.00 in Snow Light Snow
5:18 PM -9.4 °F -22.7 °F -16.6 °F 71% 30.08 in 4.0 mi SSE 5.8 mph - 0.00 in Snow Light Snow
5:53 PM -8.0 °F -21.0 °F -15.0 °F 71% 30.16 in 6.0 mi SSE 5.8 mph - 0.01 in Snow Light Snow
6:53 PM -7.1 °F -22.8 °F -14.1 °F 72% 30.13 in 10.0 mi SSE 8.1 mph - 0.00 in   Overcast
7:53 PM -6.0 °F -27.0 °F -13.0 °F 72% 30.09 in 10.0 mi SSE 15.0 mph - N/A   Overcast
8:53 PM -5.1 °F -21.5 °F -11.9 °F 72% 30.10 in 10.0 mi South 9.2 mph - N/A   Overcast
9:40 PM -4.0 °F -20.2 °F -9.4 °F 78% 29.98 in 2.5 mi South 9.2 mph - 0.00 in Snow Light Snow
9:53 PM -4.0 °F -22.1 °F -9.0 °F 79% 30.05 in 3.0 mi SSE 11.5 mph - 0.00 in Snow Light Snow
10:28 PM -2.2 °F -20.7 °F -7.6 °F 78% 29.94 in 3.0 mi South 12.7 mph - 0.00 in Snow Light Snow
10:45 PM -2.2 °F -21.5 °F -7.6 °F 78% 29.93 in 2.5 mi SSE 13.8 mph - 0.00 in Snow Light Snow
10:53 PM -2.0 °F -22.6 °F -8.0 °F 76% 30.01 in 4.0 mi South 16.1 mph - 0.00 in Snow Light Snow
11:12 PM -0.4 °F -18.4 °F -7.6 °F 72% 29.93 in 8.0 mi South 12.7 mph - 0.00 in   Mostly Cloudy
11:53 PM -0.0 °F -20.1 °F -6.0 °F 76% 30.01 in 10.0 mi South 16.1 mph - 0.01 in   Overcast